www.pogodaiklimat.ru

Погода и климат >> Архив погоды >> Мексика >> Hermosillo


ПОГОДА в Hermosillo

  • Прогноз погоды в Hermosillo
  • Монитор погоды в Hermosillo
  • Климат города

АРХИВ ПОГОДЫ в Hermosillo

Время (UTC), дата Ветер
(напр.,м/с)
 
Видим.   Явления Облачность Т
(С)
Тd
(С)
f
(%)
Тe
(С)
Тes
(С)
Комфортность P
(гПа)
Po
(гПа)
Тmin
(С)
Tmax
(С)
R
(мм)
R24
(мм)
S
(см)
15 15.01 СВ 2 12 км 3/3 900 м
[Sc diur, vesp]
+10.0 +2.4 59 +9 +9 1019.3 993.4
18 15.01 В 2 12 км 1/1 900 м
[Sc diur, vesp]
+21.6 +3.3 30 +22 +29 комфорт 1018.6 994.0 +10.0 +21.6
21 15.01 ЮЗ 1 12 км 1/1 900 м
[Sc diur, vesp]
+27.8 +3.1 20 +26 +34 жарко 1014.9 990.8
00 16.01 ЮЗ 1 12 км ясно +27.6 +2.7 20 +26 +26 жарко 1014.5 990.3 +10.0 +29.0
03 16.01 З 2 8000 м ясно +21.4 +6.7 39 +22 +22 комфорт 1016.0 991.6
15 16.01 СВ 1 12 км 9/9 900 м
[St]
+10.0 +2.9 61 +10 +10 1018.9 993.2
18 16.01 ЮЗ 1 12 км 1/1 900 м
[Sc]
+21.6 +3.3 30 +22 +30 комфорт 1018.6 994.1 +9.5 +21.6
21 16.01 ЮЗ 1 12 км 1/0
[Ci fib]
+27.4 +3.5 22 +26 +35 жарко 1015.7 991.6
00 17.01 ЮЗ 1 12 км 3/0
[Ci fib]
+28.0 +1.5 18 +26 +26 жарко 1014.7 990.5 +9.5 +29.5
03 17.01 З 3 8000 м 8/0
[Cs]
+22.4 +5.1 32 +23 +23 комфорт 1016.0 991.6
06 17.01 СВ 2 8000 м ясно +18.2 +5.4 43 +19 +19 1017.5 993.0 +9.5 +29.5
15 17.01 В 2 12 км 4/4 900 м
[Sc diur, vesp]
+12.4 +3.5 55 +12 +12 1018.9 993.3
18 17.01 СВ 3 12 км 1/1 900 м
[Sc diur, vesp]
+21.0 +4.0 33 +22 +28 комфорт 1019.6 994.8 +12.0 +21.0
21 17.01 ЮЗ 1 12 км 1/0
[Ci fib]
+27.8 +1.1 18 +26 +34 жарко 1016.2 992.1
00 18.01 ЮЗ 1 12 км ясно +26.6 +5.5 26 +26 +26 жарко 1015.2 991.0 +12.0 +29.5
03 18.01 З 2 8000 м ясно +22.2 +1.3 25 +22 +22 комфорт 1016.3 991.9
06 18.01 З 1 8000 м ясно +18.0 +6.6 47 +19 +19 1017.4 992.9 +12.0 +29.5
15 18.01 В 2 12 км ясно +12.0 +1.3 48 +11 +12 1018.9 993.2
18 18.01 СВ 3 12 км ясно +22.0 +1.6 26 +22 +28 комфорт 1018.5 993.9 +10.5 +22.0
21 18.01 СВ 1 12 км ясно +28.2 +3.2 20 +26 +35 жарко 1015.0 991.0
03 19.01 З 2 8000 м ясно +22.8 +1.8 25 +22 +22 комфорт 1015.0 990.6
15 19.01 В 2 12 км 3/0
[Ci sp]
+9.6 +1.9 59 +8 +9 1017.9 992.1
18 19.01 СВ 4 12 км ясно +21.6 +6.0 36 +22 +28 комфорт 1017.1 992.4 +9.5 +21.6
21 19.01 ЮЗ 1 12 км ясно +29.2 +0.5 16 +27 +36 жарко 1012.6 988.7
00 20.01 ЮЗ 1 12 км ясно +28.6 +2.7 19 +27 +27 жарко 1011.6 987.5 +9.5 +30.5
03 20.01 СЗ 1 8000 м ясно +21.8 +2.4 28 +22 +22 комфорт 1012.7 988.3
06 20.01 СВ 2 8000 м ясно +16.6 +3.1 40 +17 +17 1014.0 989.5 +9.5 +30.5
15 20.01 СВ 1 12 км ясно +7.6 -0.2 58 +7 +8 1016.2 990.3

 

Местоположение метеостанции Hermosillo (Мексика): широта 29.09 долгота -111.05 высота над уровнем моря 191 м.

В архиве по умолчанию представлена погода в Hermosillo за последнюю неделю. Архивные данные за месяц целиком и за предыдущие месяцы, начиная с января 2011 года, Вы можете получить, выбрав интересующий диапазон дат из раскрывающегося списка и нажав кнопку "Ввод!".

Внимание! Время в таблицах - всемирное. Для получения местного времени необходимо прибавить поправку, которая в Hermosillo равна -7 ч.

Смотрите также архив погоды в соседних городах и на ближайших метеорологических станциях:

Погода в Hermosillo la Magna (Мексика) (10 км)
Погода в Guaymas (Мексика) (131 км)
Погода в Empalme (Мексика) (131 км)
Погода в Pilares de Nacoz (Мексика) (194 км)
Погода в Altar Son (Мексика) (196 км)
Погода в Ciudad Obregon (Мексика) (224 км)
Погода в Santa Rosalia (Мексика) (233 км)
Погода в Temosachic (Мексика) (316 км)
Погода в Nueva Casas Grandes (Мексика) (336 км)
Погода в Loreto (Мексика) (342 км)

Пояснения к столбцам:

Ветер - указаны скорость ветра в м/с - средняя за 10 мин, порывы в срок и между сроками (в фигурных скобках) и направление, откуда дует ветер: С - северный, СВ - северо-восточный, В - восточный, ЮВ - юго-восточный, Ю - южный, ЮЗ - юго-западный, З - западный, СЗ - северо-западный.
Видимость - горизонтальная дальность видимости в метрах или километрах. При видимости от 1 до 10 км при отсутствии осадков обычно наблюдается дымка, при ухудшении видимости до 1 км и менее - туман. В сухую погоду видимость может ухудшаться дымом, пылью или мглою.
Явления - указаны атмосферные явления, наблюдавшиеся в срок или в последний час перед сроком; фигурными скобками обозначены явления, наблюдавшиеся между сроками (за 1-3 часа до срока); квадратными скобками обозначены град или гололедные отложения с указанием их диаметра в мм.
Облачность - указаны через наклонную черту общая и нижняя облачность в баллах и высота нижней границы облаков в метрах; квадратными скобками обозначены формы облаков: Ci - перистые, Cs - перисто-слоистые, Cc - перисто-кучевые, Ac - высококучевые, As - высокослоистые, Sc - слоисто-кучевые, Ns - слоисто-дождевые, Cu - кучевые, Cb - кучево-дождевые. Подробнее классификацию облаков см. в Атласе облаков (PDF).
T - Температура воздуха - температура, измеренная на высоте 2 м над землей.
Td - Температура точки росы - температура, при понижении до которой содержащийся в воздухе водяной пар достигнет насыщения.
f - Относительная влажность воздуха - влажноcть воздуха, измеренная на высоте 2 м над землей.
Te - Эффективная температура - температура, которую ощущает одетый по сезону человек в тени. Характеристика душности погоды. При расчете учитывается влияние влажности воздуха и скорости ветра на теплоощущения человека.
Tes - Эффективная температура на солнце - температура, которую ощущает человек, с поправкой на солнечный нагрев. Характеристика знойности погоды. Зависит от высоты солнца над горизонтом, облачности и скорости ветра. Ночью, в пасмурную погоду, а также при ветре 12 м/с и более поправка равна нулю.
P - Атмосферное давление - приведенное к уровню моря атмосферное давление.
Po - Атмосферное давление - измеренное на уровне метеостанции атмосферное давление.
Tmin - Минимальная температура - минимум температуры воздуха на высоте 2 м над землей.
Tmax - Максимальная температура - максимум температуры воздуха на высоте 2 м над землей.
R - Количество осадков - Количество выпавших осадков за период времени, мм. При наведении курсора мыши на число - период времени, за который выпало указанное количество осадков.
R24 - Количество осадков - Количество выпавших осадков за 24 часа, мм.
S - Снежный покров - Высота снежного покрова, см. При наведении курсора мыши на число - состояние снежного покрова и степень покрытия местности в баллах.